Orbital Elements at Epoch 2454620.5 (2008-Jun-03.0) TDB
Reference: JPL 36 (heliocentric ecliptic J2000)
Element | Value | Uncertainty (1-sigma) | Units |
e | .726824140378956 | 8.7922e-08 | |
a | 2.857451006960468 | 3.6084e-08 | au |
q | .7805866351514437 | 2.5912e-07 | au |
i | 5.146522899249113 | 6.7296e-06 | deg |
node | 7.132839914256547 | 0.00013097 | deg |
peri | 345.426702306856 | 0.00012753 | deg |
M | 267.1227153010858 | 2.3095e-06 | deg |
tp | 2455075.669995075111 (2009-Sep-01.16999508) | 1.4306e-05 | TDB |
period | 1764.276364864009 4.83 | 3.3419e-05 9.15e-08 | d yr |
n | .204049664309678 | 3.8651e-09 | deg/d |
Q | 4.934315378769494 | 6.2311e-08 | au |
|
Additional Model Parameters
Parameter | Value | Uncertainty (1-sigma) |
A1 [EST] | 9.655501420133272E-11 | 8.257E-11 |
A2 [EST] | -4.324885941246632E-12 | 3.002E-13 |
|
| | Orbit Determination Parameters
Additional Information
|